Погода в Тобурданово

Россия / Чувашская Республика     55°21′40″N   47°35′31″E
темп.,
°C
ветер,
м/с
пор.,
м/с
влажн.,
%
обл.,
%
осадки,
мм/ч
давл.,
гПа
погр.,
м
7 марта, вс
вс700:00−15з23960 0.0 101220
03:00−15зюз239829 0.0 101221
06:00−16зюз339769 0.0 101123
09:00−12юз479456 0.0 1011238
12:00−8юз598867 0.0 1009655
15:00−7ююз6108383 0.0 1006781
18:00−7ююз71394100 0.4 1002836
21:00−6ююз71494100 1.6 999855
8 марта, пн
пн800:00−5ююз71393100 0.8 994771
03:00−4ююз71495100 1.8 992834
06:00−7з81487100 0.8 993583
09:00−9зюз6128162 0.8 996403
12:00−5зюз7118155 0.0 998972
15:00−5юз588877 0.1 998777
18:00−8ссз1295100 0.5 99921
21:00−11ссз349399 0.5 100129
9 марта, вт
вт900:00−13зсз479517 0.0 1004108
03:00−15з479618 0.0 100694
06:00−17зсз339865 0.0 100833
09:00−14зсз249570 0.0 1010190
12:00−11ссз238895 0.0 1011409
15:00−11с349098 0.1 1011399
18:00−14ссз3495100 0.0 101283
21:00−14с4896100 0.1 1014255
10 марта, ср
ср1000:00−18ссз489790 0.0 1014190
03:00−21ссз5109993 0.1 1015215
06:00−24ссз51098100 0.0 1017237
09:00−24ссз699596 0.1 1019305
12:00−21ссз699373 0.0 1020425
15:00−20ссз6109086 0.0 1021588
18:00−22сз499383 0.0 1023171
21:00−25сз479642 0.0 1025103
11 марта, чт
чт1100:00−25сз47980 0.0 102598
03:00−26зсз47990 0.0 102692
06:00−26зсз47980 0.0 1027127
09:00−21зсз6109525 0.0 1027296
12:00−15зсз6108982 0.0 1027420
15:00−12сз6108741 0.0 1027461
18:00−16зсз4109425 0.0 1028190
21:00−18зсз489634 0.0 1030135